Change the Weather History Date:

Tuesday, August 27, 2013

  Actual Average Record
Temperature  
Mean Temperature 68 °F -  
Max Temperature 73 °F 72 °F 82 °F (2003)
Min Temperature 62 °F 59 °F 51 °F (2008)
Cooling Degree Days 2    
Growing Degree Days 18 (Base 50)    
Moisture  
Dew Point 63 °F    
Average Humidity 88    
Maximum Humidity 100    
Minimum Humidity 69    
Precipitation  
Precipitation 0.00 in - - ()
Sea Level Pressure  
Sea Level Pressure 30.22 in    
Wind  
Wind Speed 13 mph (WNW)    
Max Wind Speed 18 mph    
Max Gust Speed 25 mph    
Visibility 5 miles    
Events      
Averages and records for this station are not official NWS values.
T = Trace of Precipitation, MM = Missing Value Source: NWS Daily Summary

Daily Weather History Graph

Daily Weather History Graph

Search for Another Location

Airport or City:

Trip Planner

Search our weather history database for the weather conditions in past years. The results will help you decide how hot, cold, wet, or windy it might be!

Date:

Astronomy

Aug. 27, 2013 Rise Set
Actual Time 6:45 AM EDT 7:55 PM EDT
Civil Twilight 6:17 AM EDT 8:22 PM EDT
Nautical Twilight 5:45 AM EDT 8:55 PM EDT
Astronomical Twilight 5:11 AM EDT 9:28 PM EDT
Moon 11:55 PM EDT (8/27) 1:34 PM EDT (8/27)
Length of Visible Light 14h 04m
Length of Day
13h 10m
Waning Gibbous, 57% of the Moon is Illuminated
Aug 27
Waning Gibbous
Aug 28
Last Quarter
Sep 5
New
Sep 12
First Quarter
Sep 19
Full

Hourly Weather History & Observations

Time (EDT) Temp. Dew Point Humidity Pressure Visibility Wind Dir Wind Speed Gust Speed Precip Events Conditions
12:15 AM 64.4 °F 57.2 °F 77% 30.27 in 10.0 mi WNW 15.0 mph - N/A   Mostly Cloudy
12:35 AM 62.6 °F 57.2 °F 82% 30.26 in 10.0 mi WNW 13.8 mph - N/A   Mostly Cloudy
12:55 AM 62.6 °F 59.0 °F 88% 30.27 in 7.0 mi WNW 10.4 mph 16.1 mph N/A   Scattered Clouds
1:15 AM 62.6 °F 59.0 °F 88% 30.26 in 10.0 mi WNW 12.7 mph - N/A   Clear
1:35 AM 62.6 °F 59.0 °F 88% 30.24 in 10.0 mi WNW 12.7 mph - N/A   Clear
1:55 AM 64.4 °F 60.8 °F 88% 30.24 in 7.0 mi WNW 15.0 mph - N/A   Clear
2:15 AM 62.6 °F 60.8 °F 94% 30.24 in 7.0 mi WNW 17.3 mph - N/A   Clear
2:35 AM 62.6 °F 60.8 °F 94% 30.24 in 7.0 mi WNW 16.1 mph - N/A   Clear
2:55 AM 62.6 °F 60.8 °F 94% 30.24 in 7.0 mi WNW 13.8 mph - N/A   Clear
3:15 AM 62.6 °F 62.6 °F 100% 30.23 in 5.0 mi WNW 13.8 mph 18.4 mph N/A   Clear
3:35 AM 62.6 °F 62.6 °F 100% 30.23 in 5.0 mi West 15.0 mph 19.6 mph N/A   Clear
3:55 AM 62.6 °F 62.6 °F 100% 30.22 in 5.0 mi WNW 12.7 mph - N/A   Clear
4:15 AM 62.6 °F 62.6 °F 100% 30.22 in 5.0 mi WNW 15.0 mph - N/A   Clear
4:35 AM 62.6 °F 62.6 °F 100% 30.22 in 5.0 mi WNW 17.3 mph - N/A   Clear
4:55 AM 62.6 °F 62.6 °F 100% 30.22 in 4.0 mi West 15.0 mph - N/A   Clear
5:15 AM 62.6 °F 62.6 °F 100% 30.22 in 4.0 mi WNW 13.8 mph - N/A   Clear
5:35 AM 62.6 °F 62.6 °F 100% 30.22 in 4.0 mi West 15.0 mph - N/A   Scattered Clouds
5:55 AM 62.6 °F 62.6 °F 100% 30.22 in 4.0 mi West 16.1 mph - N/A   Clear
6:15 AM 62.6 °F 62.6 °F 100% 30.23 in 4.0 mi West 13.8 mph - N/A   Clear
6:35 AM 62.6 °F 62.6 °F 100% 30.22 in 3.0 mi West 12.7 mph - N/A   Clear
6:55 AM 62.6 °F 62.6 °F 100% 30.23 in 4.0 mi WNW 17.3 mph 23.0 mph N/A   Clear
7:15 AM 62.6 °F 62.6 °F 100% 30.23 in 3.0 mi WNW 16.1 mph - N/A   Clear
7:35 AM 64.4 °F 62.6 °F 94% 30.22 in 3.0 mi WNW 13.8 mph 20.7 mph N/A   Clear
7:55 AM 62.6 °F 62.6 °F 100% 30.22 in 1.8 mi WNW 13.8 mph - N/A   Mist
8:15 AM 62.6 °F 62.6 °F 100% 30.22 in 1.5 mi West 11.5 mph - N/A   Mist
8:35 AM 64.4 °F 64.4 °F 100% 30.23 in 2.0 mi WNW 12.7 mph 17.3 mph N/A   Mostly Cloudy
8:55 AM 64.4 °F 64.4 °F 100% 30.23 in 2.5 mi WNW 13.8 mph 19.6 mph N/A   Scattered Clouds
9:15 AM 64.4 °F 64.4 °F 100% 30.23 in 2.5 mi West 13.8 mph - N/A   Scattered Clouds
9:35 AM 64.4 °F 64.4 °F 100% 30.23 in 2.0 mi West 11.5 mph 16.1 mph N/A   Mostly Cloudy
9:55 AM 64.4 °F 64.4 °F 100% 30.23 in 2.0 mi West 13.8 mph - N/A   Overcast
10:15 AM 64.4 °F 64.4 °F 100% 30.23 in 2.0 mi West 12.7 mph 19.6 mph N/A   Overcast
10:35 AM 66.2 °F 66.2 °F 100% 30.22 in 2.5 mi WNW 12.7 mph - N/A   Mostly Cloudy
10:55 AM 66.2 °F 66.2 °F 100% 30.22 in 3.0 mi West 13.8 mph 19.6 mph N/A   Scattered Clouds
11:15 AM 69.8 °F 66.2 °F 88% 30.22 in 3.0 mi WNW 10.4 mph - N/A   Clear
11:35 AM 69.8 °F 66.2 °F 88% 30.23 in 4.0 mi West 9.2 mph - N/A   Scattered Clouds
11:55 AM 71.6 °F 66.2 °F 83% 30.24 in 4.0 mi WNW 8.1 mph - N/A   Scattered Clouds
12:15 PM 71.6 °F 66.2 °F 83% 30.24 in 4.0 mi WNW 9.2 mph - N/A   Haze
12:35 PM 71.6 °F 66.2 °F 83% 30.24 in 4.0 mi NW 9.2 mph - N/A   Haze
12:55 PM 73.4 °F 64.4 °F 73% 30.24 in 5.0 mi NW 11.5 mph 16.1 mph N/A   Haze
1:15 PM 73.4 °F 64.4 °F 73% 30.22 in 5.0 mi WNW 13.8 mph 17.3 mph N/A   Haze
1:35 PM 73.4 °F 62.6 °F 69% 30.22 in 5.0 mi WNW 11.5 mph 17.3 mph N/A   Haze
1:55 PM 73.4 °F 64.4 °F 73% 30.22 in 5.0 mi NW 10.4 mph - N/A   Haze
2:15 PM 73.4 °F 62.6 °F 69% 30.22 in 7.0 mi WNW 13.8 mph 18.4 mph N/A   Clear
2:35 PM 71.6 °F 62.6 °F 73% 30.21 in 7.0 mi WNW 13.8 mph - N/A   Clear
2:55 PM 71.6 °F 62.6 °F 73% 30.20 in 5.0 mi WNW 15.0 mph 21.9 mph N/A   Haze
3:15 PM 71.6 °F 62.6 °F 73% 30.20 in 7.0 mi NW 17.3 mph 24.2 mph N/A   Overcast
3:35 PM 73.4 °F 62.6 °F 69% 30.19 in 5.0 mi WNW 18.4 mph 24.2 mph N/A   Haze
3:55 PM 73.4 °F 62.6 °F 69% 30.19 in 5.0 mi WNW 15.0 mph 25.3 mph N/A   Haze
4:15 PM 73.4 °F 62.6 °F 69% 30.18 in 5.0 mi NW 10.4 mph 21.9 mph N/A   Haze
4:35 PM 71.6 °F 62.6 °F 73% 30.18 in 5.0 mi NW 13.8 mph 20.7 mph N/A   Haze
4:55 PM 71.6 °F 62.6 °F 73% 30.19 in 4.0 mi NW 11.5 mph 18.4 mph N/A   Haze
5:15 PM 71.6 °F 62.6 °F 73% 30.18 in 5.0 mi WNW 10.4 mph 17.3 mph N/A   Haze
5:35 PM 71.6 °F 62.6 °F 73% 30.18 in 5.0 mi West 10.4 mph - N/A   Haze
5:55 PM 69.8 °F 62.6 °F 78% 30.18 in 5.0 mi West 10.4 mph - N/A   Haze
6:15 PM 69.8 °F 62.6 °F 78% 30.18 in 7.0 mi West 6.9 mph - N/A   Clear
6:35 PM 69.8 °F 62.6 °F 78% 30.18 in 5.0 mi West 5.8 mph - N/A   Haze
6:55 PM 69.8 °F 62.6 °F 78% 30.18 in 5.0 mi West 5.8 mph - N/A   Haze
7:15 PM 69.8 °F 64.4 °F 83% 30.18 in 7.0 mi West 6.9 mph - N/A   Clear
7:35 PM 69.8 °F 64.4 °F 83% 30.18 in 7.0 mi West 10.4 mph - N/A   Clear
7:55 PM 69.8 °F 62.6 °F 78% 30.18 in 7.0 mi West 12.7 mph - N/A   Clear
8:15 PM 69.8 °F 62.6 °F 78% 30.19 in 7.0 mi West 13.8 mph - N/A   Clear
9:15 PM 68.0 °F 64.4 °F 88% 30.21 in 5.0 mi West 11.5 mph - N/A   Mostly Cloudy
9:35 PM 66.2 °F 64.4 °F 94% 30.21 in 5.0 mi West 10.4 mph - N/A   Overcast
9:55 PM 66.2 °F 62.6 °F 88% 30.20 in 7.0 mi West 11.5 mph - N/A   Overcast
10:15 PM 66.2 °F 62.6 °F 88% 30.20 in 7.0 mi West 12.7 mph - N/A   Mostly Cloudy
10:35 PM 66.2 °F 62.6 °F 88% 30.20 in 5.0 mi West 11.5 mph - N/A   Scattered Clouds
10:55 PM 66.2 °F 62.6 °F 88% 30.20 in 7.0 mi West 12.7 mph - N/A   Scattered Clouds
11:15 PM 66.2 °F 62.6 °F 88% 30.20 in 7.0 mi West 13.8 mph 17.3 mph N/A   Scattered Clouds
11:35 PM 66.2 °F 64.4 °F 94% 30.20 in 5.0 mi West 10.4 mph - N/A   Scattered Clouds
11:55 PM 66.2 °F 64.4 °F 94% 30.20 in 5.0 mi West 11.5 mph - N/A   Scattered Clouds